This demonstration page uses our WeatherBlox Daily Observations layout. Learn more.

Left ArrowRight Arrow

41.12389, -100.76542

Hourly Observations for August 12, 2019

Temp ( °F °C ) Dew Point ( °F °C ) Humidity (%) Winds ( mph kmh ) Pressure ( in mb ) Visibility ( mi km ) Precip ( " mm )
12:10 am 00:10 Cloudy with Light Rain 72 22.2 70 21.1 94 94 W 8 13 29.78 1008 10 16 0.01 0.25
12:42 am 00:42 Mostly Cloudy with Nearby Thunderstorms 71 21.7 69 20.6 94 94 S 3 6 29.77 1008 9 14 0.07 1.78
12:53 am 00:53 Mostly Cloudy with Nearby Thunderstorms 71 21.7 69 20.6 94 94 E 3 6 29.81 1009 8 13 0.10 2.54
1:13 am 01:13 Mostly Cloudy with Light Rain 71 21.7 69 20.6 94 94 ESE 5 7 29.77 1008 10 16 0.01 0.25
1:53 am 01:53 Mostly Clear 70 21.1 68 20 93 93 W 3 6 29.80 1009 10 16 0.01 0.25
2:21 am 02:21 Partly Cloudy 70 21.1 68 20 93 93 N 5 7 29.74 1007 10 16 0.00 0.00
2:30 am 02:30 Mostly Cloudy 70 21.1 68 20 93 93 N 6 9 29.74 1007 10 16 0.00 0.00
2:53 am 02:53 Cloudy 69 20.6 67 19.4 93 93 NNE 3 6 29.79 1009 10 16 0.00 0.00
3:44 am 03:44 Partly Cloudy 68 20 66 18.9 93 93 ENE 8 13 29.77 1008 10 16 0.00 0.00
3:53 am 03:53 Partly Cloudy 68 20 66 18.9 93 93 NE 7 11 29.79 1009 10 16 0.00 0.00
4:53 am 04:53 Mostly Clear 65 18.3 63 17.2 93 93 Calm 29.80 1009 10 16 0.00 0.00
5:06 am 05:06 Mostly Cloudy 65 18.3 64 17.8 97 97 Calm 29.79 1009 10 16 0.00 0.00
5:30 am 05:30 Cloudy 67 19.4 65 18.3 93 93 Calm 29.77 1008 9 14 0.00 0.00
5:43 am 05:43 Cloudy 67 19.4 65 18.3 93 93 N 5 7 29.78 1008 10 16 0.00 0.00
5:53 am 05:53 Cloudy 66 18.9 65 18.3 96 96 N 5 7 29.79 1009 10 16 0.00 0.00
6:19 am 06:19 Cloudy with Mist and Fog 66 18.9 65 18.3 96 96 NNW 8 13 29.78 1009 2 3 0.00 0.00
6:24 am 06:24 Mostly Cloudy with Mist and Fog 66 18.9 65 18.3 96 96 NNW 7 11 29.79 1009 1 1 0.00 0.00
6:53 am 06:53 Mostly Cloudy with Mist and Fog 66 18.9 65 18.3 96 96 N 6 9 29.82 1010 1 1 0.00 0.00
7:22 am 07:22 Cloudy with Mist and Fog 66 18.9 65 18.3 96 96 NNW 3 6 29.80 1009 1 2 0.00 0.00
7:26 am 07:26 Cloudy with Mist and Fog 66 18.9 65 18.3 96 96 Calm 29.80 1009 2 3 0.00 0.00
7:35 am 07:35 Cloudy with Mist and Fog 66 18.9 65 18.3 96 96 WNW 3 6 29.80 1009 5 8 0.00 0.00
7:53 am 07:53 Partly Cloudy 67 19.4 66 18.9 97 97 NW 3 6 29.83 1010 10 16 0.00 0.00
8:53 am 08:53 Sunny 67 19.4 66 18.9 97 97 WNW 5 7 29.83 1010 10 16 0.00 0.00
9:53 am 09:53 Sunny 73 22.8 68 20 84 84 WNW 7 11 29.85 1011 10 16 0.00 0.00
10:53 am 10:53 Sunny 77 25 69 20.6 77 77 NW 9 15 29.85 1011 10 16 0.00 0.00
11:22 am 11:22 Mostly Cloudy 78 25.6 68 20 71 71 NW 7 11 29.78 1008 10 16 0.00 0.00
11:53 am 11:53 Mostly Cloudy 80 26.7 69 20.6 69 69 NW 10 17 29.86 1011 10 16 0.00 0.00
12:41 pm 12:41 Mostly Cloudy 80 26.7 69 20.6 69 69 N 8 13 29.79 1009 10 16 0.00 0.00
12:53 pm 12:53 Mostly Cloudy 81 27.2 69 20.6 67 67 NNW 9 15 29.88 1012 10 16 0.00 0.00
1:53 pm 13:53 Mostly Cloudy 84 28.9 70 21.1 63 63 NNW 7 11 29.88 1012 10 16 0.00 0.00
2:53 pm 14:53 Mostly Cloudy 84 28.9 68 20 59 59 NNE 7 11 29.87 1012 10 16 0.00 0.00
3:53 pm 15:53 Mostly Cloudy 83 28.3 66 18.9 57 57 NNE 10 17 29.88 1012 10 16 0.00 0.00
4:53 pm 16:53 Mostly Sunny 85 29.4 66 18.9 53 53 N 10 17 29.89 1012 10 16 0.00 0.00
5:53 pm 17:53 Sunny 84 28.9 65 18.3 53 53 NNE 7 11 29.89 1012 10 16 0.00 0.00
6:53 pm 18:53 Sunny 82 27.8 65 18.3 56 56 NE 8 13 29.89 1012 10 16 0.00 0.00
7:53 pm 19:53 Sunny 79 26.1 65 18.3 62 62 ENE 7 11 29.90 1013 10 16 0.00 0.00
8:53 pm 20:53 Clear 73 22.8 67 19.4 81 81 E 3 6 29.92 1013 10 16 0.00 0.00
9:53 pm 21:53 Clear 70 21.1 64 17.8 82 82 ENE 6 9 29.94 1014 10 16 0.00 0.00
10:53 pm 22:53 Clear 68 20 63 17.2 84 84 VRB 3 6 29.96 1015 10 16 0.00 0.00
11:53 pm 23:53 Clear 68 20 63 17.2 84 84 ESE 3 6 29.97 1015 10 16 0.00 0.00

Powered by AerisWeather